THOR 6

Last updated on Thu Nov 21 2024 00:02:41 GMT+0000 (Coordinated Universal Time)

1 36033U 09058B 24325.08395810 -.00000008 00000+0 00000+0 0 9994 2 36033 0.0368 113.9513 0002286 147.4865 187.5416 1.00271148 55242
UTC large
Height (km)
Speed (km/s)
/
Latitude / Longitude
Inclination (degrees)
Orbital Period (minutes)
Azimuth
Elevation
Range (km)
Doppler Factor

Next 0 passes for location: London (51.5072 / 0.1276)

Sorry there are no passes over London.